Find Starlink 2589

NORAD ID: 48371 Int'l Des: 2021-038 Owner: SPXS Country: US Constellation: starlink operational
LEOCIRCULAR

实时位置

正在加载3D地球...

关于 Starlink 2589

正在加载描述...

即将过境

Passes for default location (London). Set your location on the main map for personalized predictions.

高度历史

Loading altitude history...

两行轨道根数

1 48371U 21038U 26127.14541308 .00000972 00000-0 43091-4 0 9990
2 48371 53.1612 76.0992 0001244 91.4285 268.6859 15.31705268276171
Epoch: May 7, 2026 • Age: 17 hours

当前状态

高度 470.8 km
速度 7.63 km/s
星下点 9.57°N, 97.26°W
发射日期 May 4, 2021
运行时间 5 years
类型 internet

技术详情

分类 Payload
质量 260.00 kg
干质量 248.00 kg
总质量 260.00 kg
长度 0.20 m
直径 2.80 m
跨度 9.00 m
形状 Box + pan
制造商 SPXS
平台类型 Starlink
阶段状态 In Orbit
所有者/国家 SPXS/US

Most Searched